Terminal Aerodrome Forecast
Issued by NWS Upton, NY

Home | Current Version | Previous Version | Text Only | Print | Product List | Glossary On
Versions: 1 2 3 4 5 6 7 8 9 10 11 12 13 14 15 16 17 18 19 20 21 22 23 24 25 26 27 28 29 30
000
FTUS41 KOKX 261100
TAFISP
TAF
KISP 261120Z 2612/2712 05015KT P6SM BKN030
      TEMPO 2613/2616 3SM -SN BR BKN015
     FM261600 05016G23KT 1SM -SN BR BKN007
     FM261900 04018G25KT 3/4SM -SN BR BKN007
     FM262300 03023G31KT 1/2SM SN FZFG VV005
     FM270400 02025G37KT 1/4SM +SN FZFG VV003=

USA.gov is the U.S. government's official web portal to all federal, state and local government web resources and services.